Weather History for Hill City, KS

Change the Weather History Date:

Wednesday, January 30, 2013

  Actual Average Record
Temperature  
Mean Temperature 27 °F 30 °F  
Max Temperature 34 °F 43 °F 73 °F (2012)
Min Temperature 20 °F 18 °F -13 °F (1918)
Degree Days  
Heating Degree Days 39    
Moisture  
Dew Point 18 °F    
Average Humidity 73    
Maximum Humidity 85    
Minimum Humidity 50    
Precipitation  
Precipitation T in 0.03 in 0.64 in (1999)
Month to date precipitation 0.09 0.43  
Year to date precipitation 0.09 0.43  
Sea Level Pressure  
Sea Level Pressure 29.96 in    
Wind  
Wind Speed 15 mph (WNW)    
Max Wind Speed 22 mph    
Max Gust Speed 26 mph    
Visibility 10 miles    
Events      
T = Trace of Precipitation, MM = Missing Value Source: NWS Daily Summary

Daily Weather History Graph

Daily Weather History Graph

Search for Another Location

Airport:

Trip Planner

Search our weather history database for the weather conditions in past years. The results will help you decide how hot, cold, wet, or windy it might be!

Date:

Astronomy

Jan. 30, 2013 Rise Set
Actual Time 7:48 AM CST 5:57 PM CST
Civil Twilight 7:19 AM CST 6:26 PM CST
Nautical Twilight 6:47 AM CST 6:58 PM CST
Astronomical Twilight 6:15 AM CST 7:30 PM CST
Moon 9:56 PM CST (1/30) 9:18 AM CST (1/30)
Length of Visible Light 11h 06m
Length of Day
10h 09m
Waning Gibbous, 87% of the Moon is Illuminated
Jan 30
Waning Gibbous
Feb 3
Last Quarter
Feb 10
New
Feb 17
First Quarter
Feb 25
Full

Hourly Weather History & Observations

Time (CST) Temp. Windchill Dew Point Humidity Pressure Visibility Wind Dir Wind Speed Gust Speed Precip Events Conditions
12:53 AM 30.0 °F 16.9 °F 25.0 °F 82% 29.83 in 10.0 mi NNW 21.9 mph - N/A   Overcast
1:53 AM 27.0 °F 13.9 °F 21.9 °F 81% 29.86 in 10.0 mi NNW 18.4 mph - N/A   Clear
2:53 AM 28.0 °F 16.1 °F 24.1 °F 85% 29.88 in 10.0 mi NNW 16.1 mph - N/A   Overcast
3:53 AM 28.9 °F 17.7 °F 25.0 °F 85% 29.91 in 10.0 mi North 15.0 mph 20.7 mph N/A   Overcast
4:53 AM 28.0 °F 16.1 °F 24.1 °F 85% 29.94 in 10.0 mi North 16.1 mph 20.7 mph N/A   Overcast
5:53 AM 27.0 °F 14.3 °F 21.0 °F 78% 29.96 in 10.0 mi NNW 17.3 mph 26.5 mph N/A   Overcast
6:53 AM 24.1 °F 10.1 °F 18.0 °F 77% 29.99 in 10.0 mi NNW 18.4 mph 26.5 mph 0.00 in   Overcast
7:06 AM 23.0 °F 8.3 °F 17.6 °F 80% 29.93 in 10.0 mi NNW 19.6 mph 25.3 mph N/A   Overcast
7:53 AM 21.9 °F 9.2 °F 15.1 °F 75% 30.01 in 10.0 mi NW 13.8 mph - N/A   Overcast
8:37 AM 19.4 °F 5.5 °F 14.0 °F 80% 29.95 in 10.0 mi NW 15.0 mph - N/A   Mostly Cloudy
8:49 AM 19.4 °F 7.2 °F 12.2 °F 74% 29.95 in 10.0 mi NW 11.5 mph - N/A   Scattered Clouds
8:53 AM 19.9 °F 7.3 °F 12.9 °F 74% 30.03 in 10.0 mi NW 12.7 mph - N/A   Scattered Clouds
9:53 AM 21.0 °F 7.6 °F 12.9 °F 71% 30.04 in 10.0 mi NW 15.0 mph 21.9 mph N/A   Clear
10:53 AM 24.1 °F 11.0 °F 12.9 °F 62% 30.03 in 10.0 mi NNW 16.1 mph 24.2 mph N/A   Clear
11:53 AM 25.0 °F 13.6 °F 15.1 °F 66% 30.02 in 10.0 mi WNW 12.7 mph - N/A   Clear
12:53 PM 26.1 °F 16.2 °F 15.1 °F 63% 30.00 in 10.0 mi WNW 10.4 mph 19.6 mph N/A   Clear
1:53 PM 28.0 °F 17.5 °F 16.0 °F 61% 29.98 in 10.0 mi WNW 12.7 mph - N/A   Clear
2:53 PM 30.9 °F 20.7 °F 17.1 °F 57% 29.95 in 10.0 mi WNW 13.8 mph - N/A   Clear
3:53 PM 33.1 °F 25.5 °F 16.0 °F 50% 29.94 in 10.0 mi West 9.2 mph - N/A   Clear
4:53 PM 33.1 °F 28.7 °F 18.0 °F 54% 29.93 in 10.0 mi West 4.6 mph - N/A   Clear
5:53 PM 30.9 °F 27.5 °F 18.0 °F 59% 29.93 in 10.0 mi South 3.5 mph - N/A   Clear
6:53 PM 24.1 °F 18.2 °F 18.0 °F 77% 29.95 in 10.0 mi South 4.6 mph - N/A   Clear
7:53 PM 23.0 °F 17.0 °F 17.1 °F 78% 29.95 in 10.0 mi Variable 4.6 mph - N/A   Clear
8:53 PM 21.0 °F 14.6 °F 17.1 °F 85% 29.97 in 10.0 mi WSW 4.6 mph - N/A   Clear
9:53 PM 21.0 °F 14.6 °F 15.1 °F 78% 29.98 in 10.0 mi WSW 4.6 mph - N/A   Clear
10:53 PM 23.0 °F 13.1 °F 16.0 °F 74% 29.96 in 10.0 mi West 9.2 mph - N/A   Clear
11:53 PM 25.0 °F 14.8 °F 18.0 °F 75% 29.97 in 10.0 mi West 10.4 mph - N/A   Clear